Terug naar catalogus

STARLINK-11102

ActiefCommunicatieVLEO
NORAD 60065·PAYLOAD·🇺🇸 United States

Gelanceerd Jun 19, 2024 vanaf Vandenberg Space Force Base

Loading…

Volgende Passages (komende 24 uur)

TLE

VersSource: CelesTrak SupGP

Epoch: Sep 14, 2026, 14:17 UTC

1 60065C 24113G   26257.59562500  .00036002  00000+0  29660-3 0  2575
2 60065  53.1568 339.7651 0001263  64.8481 304.1175 15.69687914    12

Volg STARLINK-11102 in realtime met AllMySat

Download on the App Store